This is the latest recevied weather packets stored in our database for station/object WB9TLH-11. If no packets are shown the sender has not sent any weather packets the latest 1 day(s).
| Time | Temp. | Humidity | Pressure | Rain* | Wind** | Luminosity | Snow |
|---|---|---|---|---|---|---|---|
| 1778091949 | 13.33° C | 62% | 1014.9 hPa | 0 mm | - | - | - |
| 1778091649 | 13.33° C | 61% | 1014.8 hPa | 0 mm | - | - | - |
| 1778091349 | 13.33° C | 60% | 1014.9 hPa | 0 mm | - | - | - |
| 1778091049 | 13.33° C | 62% | 1014.9 hPa | 0 mm | - | - | - |
| 1778090749 | 12.78° C | 61% | 1014.8 hPa | 0 mm | - | - | - |
| 1778090449 | 12.78° C | 62% | 1014.8 hPa | 0 mm | - | - | - |
| 1778090149 | 12.78° C | 61% | 1014.9 hPa | 0 mm | - | - | - |
| 1778089849 | 12.78° C | 67% | 1015 hPa | 0 mm | - | - | - |
| 1778089549 | 12.78° C | 68% | 1015.1 hPa | 0 mm | - | - | - |
| 1778089249 | 12.78° C | 68% | 1014.9 hPa | 0 mm | - | - | - |
| 1778088949 | 12.78° C | 63% | 1014.9 hPa | 0 mm | - | - | - |
| 1778088649 | 12.78° C | 66% | 1015.1 hPa | 0 mm | - | - | - |
| 1778088349 | 12.78° C | 64% | 1015.1 hPa | 0 mm | - | - | - |
| 1778088049 | 12.78° C | 67% | 1015.1 hPa | 0 mm | - | - | - |
| 1778087749 | 12.78° C | 66% | 1015.1 hPa | 0 mm | - | - | - |
| 1778087449 | 12.78° C | 66% | 1015.1 hPa | 0 mm | - | - | - |
| 1778087149 | 12.78° C | 64% | 1015.2 hPa | 0 mm | - | - | - |
| 1778086849 | 12.78° C | 64% | 1015.3 hPa | 0 mm | - | - | - |
| 1778086549 | 12.78° C | 65% | 1015.3 hPa | 0 mm | - | - | - |
| 1778086249 | 12.78° C | 64% | 1015.4 hPa | 0 mm | - | - | - |
| 1778085949 | 12.78° C | 68% | 1015.4 hPa | 0 mm | - | - | - |
| 1778085649 | 12.78° C | 68% | 1015.2 hPa | 0 mm | - | - | - |
| 1778085049 | 12.22° C | 70% | 1015.2 hPa | 0 mm | - | - | - |
| 1778084749 | 12.22° C | 71% | 1015.3 hPa | 0 mm | - | - | - |
| 1778084449 | 12.22° C | 67% | 1015.2 hPa | 0 mm | - | - | - |
* Rain latest hour (hover to see other rain measurements)
** Current wind speed in m/s (hover to see current wind gust speed)